304  
SXUS55 KTWC 252315  
OSOTWC  
 
WEATHER ROUNDUP FOR SOUTHEAST ARIZONA  
NATIONAL WEATHER SERVICE TUCSON AZ  
415 PM MST SAT JAN 25 2020  
 
AZZ504>506-514-260015-  
LOCATION SKY/WX TMP DP RH WIND PRES REMARKS  
TUCSON MOSUNNY 71 43 36 NW7 30.05S  
DAVIS-MONTHAN SUNNY 69 43 38 W8 30.03F  
CHILDRENS PARK N/A N/A N/A 34 NW4 PIMA CO DEQ  
ALVERNON/22ND N/A 71 N/A N/A NW4 PIMA CO DEQ  
CHERRY/GLENN N/A N/A N/A N/A N/A PIMA CO DEQ  
TANGERINE N/A 70 N/A N/A W5 PIMA CO DEQ  
CONTL RANCH N/A 71 41 34 NW7 PIMA CO DEQ  
GRANT/1ST N/A 71 41 34 N2 PIMA CO DEQ  
CRAYCROFT/22ND N/A 71 40 33 W5 PIMA CO DEQ  
GOLFLINKS/KOLB N/A N/A N/A N/A N/A PIMA CO DEQ  
AJO/12TH N/A 70 40 33 NW4 PIMA CO DEQ  
FAIRGROUNDS N/A 70 N/A N/A NW6 PIMA CO DEQ  
SAGUARO N/A 73 38 28 SW6G10 *SABINO CYN  
SAN CARLOS N/A 68 38 33 SE2 *SAN CARLOS  
GREEN VALLEY N/A 73 43 34 N5 PIMA CO DEQ  
HORSE CAMP CYN N/A 64 33 31 SW9G14 *ARAVAIPA CYN  
RINCON MTNS N/A 49 30 49 SW3 *NR MANNING CAMP  

 
 
AZZ509>511-260015-  
LOCATION SKY/WX TMP DP RH WIND PRES REMARKS  
SAFFORD PTSUNNY 63 40 42 W8 30.03S  
STRAY HORSE N/A 52 25 35 SW7G12 *  
TRAIL CABIN N/A 56 32 41 SW4G12 *N OF GRANVILLE  
BLACK HILLS NOT AVBL  
DRY LAKE N/A 53 32 45 W4G12 *NATANES MTNS  
NOON CREEK N/A 62 37 40 NE4 *PINALENO MTNS  
COLUMBINE N/A 47 26 44 SW3G11 *PINALENO MTNS  
GUTHRIE N/A 51 25 36 SW12G17 *SW OF GUTHRIE  

 
 
AZZ502-503-513-260015-  
LOCATION SKY/WX TMP DP RH WIND PRES REMARKS  
NOGALES SUNNY 67 35 30 VRB7 30.07R  
SELLS N/A 71 41 34 W7G10 *  
SASABE N/A 72 35 26 SW8G13 *ALTAR VLY  
HOPKINS N/A 61 37 41 W7G12 *SANTA RITA MTNS  
CARR CYN N/A 54 42 65 CALM *W OF HEREFORD  

 
 
AZZ507-508-512-260015-  
LOCATION SKY/WX TMP DP RH WIND PRES REMARKS  
SIERRA VISTA SUNNY 66 29 24 NW9 30.10R  
DOUGLAS NOT AVBL  
EMPIRE MTNS NOT AVBL  
MULESHOE RANCH N/A 65 34 32 NW8G12 *PRESERVE  
HEADQUARTERS N/A 62 32 33 W5G10 *CHIRICAHUA MTNS  

 
   
............................NOTES..........................
 
 
THIS IS AN AUTOMATED COLLECTIVE WITH MINIMAL QUALITY CONTROL.  
PIMA CO DEQ SITES HAVE NONSTANDARD WIND SENSOR HEIGHTS.  
PIMA CO DEQ SITES DO NOT REPORT WIND GUSTS.  
* INDICATES WIND SENSORS LOCATED AT 20 FEET INSTEAD OF 33 FEET.   
.............................KEY...........................
 
 
SKY/WX - SKY CONDITION/WEATHER  
TMP - TEMPERATURE IN FAHRENHEIT  
DP - DEWPOINT IN FAHRENHEIT  
RH - RELATIVE HUMIDITY IN PERCENT  
WIND - DIRECTION AND SPEED IN MILES PER HOUR (MPH)  
VRB - VARIABLE WIND DIRECTION  
PRES - MEAN SEA LEVEL PRESSURE IN INCHES OF MERCURY  
F - FALLING PRESSURE R - RISING PRESSURE  
S - STEADY PRESSURE  
VSB - VISIBILITY IN MILES  
HX - HEAT INDEX IN FAHRENHEIT  
WCI - WIND CHILL INDEX IN FAHRENHEIT  
N/A - NOT AVAILABLE  
AFB - AIR FORCE BASE  
DAVIS-MONTHAN IS DAVIS-MONTHAN AIR FORCE BASE  
CYN - CANYON  
MTNS - MOUNTAINS  
NCA - NATIONAL CONSERVATION AREA  
NR - NEAR  
VLY - VALLEY  
CONTL - CONTINENTAL  
PIMA CO DEQ - PIMA COUNTY DEPT OF ENVIRONMENTAL QUALITY  
 
CLICK HERE TO GO TO PREVIOUS BULLETINS.

The Nexlab AZ Page Main Text Page